Watsonville, CA

10:37 PM PDT on August 26, 2016 (GMT -0700)
Watsonville Municipal

Weather History for KWVI - January, 2014

Change the Weather History Date:

Saturday, January 25, 2014

  Actual Average Record
Temperature  
Mean Temperature 62 °F 51 °F  
Max Temperature 79 °F 62 °F 82 °F (2015)
Min Temperature 45 °F 40 °F 33 °F (2002)
Degree Days  
Heating Degree Days 3    
Month to date heating degree days 238  
Since 1 July heating degree days 1368  
Cooling Degree Days 0    
Month to date cooling degree days 0  
Year to date cooling degree days 0  
Growing Degree Days 12 (Base 50)    
Moisture  
Dew Point 39 °F    
Average Humidity 49    
Maximum Humidity 83    
Minimum Humidity 15    
Precipitation  
Precipitation 0.00 in - 1.87 in (1952)
Month to date precipitation 0.00  
Year to date precipitation 0.00  
Since 1 July precipitation 1.07  
Sea Level Pressure  
Sea Level Pressure 30.19 in    
Wind  
Wind Speed 3 mph (ENE)    
Max Wind Speed 10 mph    
Max Gust Speed 23 mph    
Visibility 10 miles    
Events      
T = Trace of Precipitation, MM = Missing Value Source: NWS Daily Summary

Daily Weather History Graph

Daily Weather History Graph

Search for Another Location

Airport or City:

Trip Planner

Search our weather history database for the weather conditions in past years. The results will help you decide how hot, cold, wet, or windy it might be!

Date:

Astronomy

Jan. 25, 2014 Rise Set
Actual Time 7:14 AM PST 5:24 PM PST
Civil Twilight 6:46 AM PST 5:52 PM PST
Nautical Twilight 6:15 AM PST 6:24 PM PST
Astronomical Twilight 5:44 AM PST 6:54 PM PST
Moon 1:52 AM PST (1/25) 12:29 PM PST (1/25)
Length of Visible Light 11h 05m
Length of Day
10h 10m
Waning Crescent, 33% of the Moon is Illuminated
Jan 25
Waning Crescent
Jan 30
New
Feb 6
First Quarter
Feb 14
Full
Feb 22
Last Quarter

Hourly Weather History & Observations

Time (PST) Temp. Windchill Dew Point Humidity Pressure Visibility Wind Dir Wind Speed Gust Speed Precip Events Conditions
12:53 AM 45.0 °F 43.5 °F 39.9 °F 82% 30.26 in 10.0 mi East 3.5 mph - N/A   Clear
1:53 AM 48.0 °F - 43.0 °F 83% 30.25 in 10.0 mi Calm Calm - N/A   Clear
2:53 AM 48.0 °F - 43.0 °F 83% 30.24 in 10.0 mi Calm Calm - N/A   Clear
3:53 AM 50.0 °F - 43.0 °F 77% 30.22 in 10.0 mi Variable 3.5 mph - N/A   Clear
4:53 AM 51.1 °F - 41.0 °F 68% 30.22 in 10.0 mi East 4.6 mph - N/A   Clear
5:53 AM 51.1 °F - 41.0 °F 68% 30.22 in 10.0 mi East 5.8 mph - N/A   Clear
6:53 AM 48.9 °F - 41.0 °F 74% 30.22 in 10.0 mi Calm Calm - N/A   Clear
7:53 AM 50.0 °F - 39.9 °F 68% 30.22 in 10.0 mi Calm Calm - N/A   Clear
8:53 AM 57.0 °F - 39.9 °F 53% 30.23 in 10.0 mi Calm Calm - N/A   Clear
9:53 AM 60.1 °F - 39.9 °F 47% 30.23 in 10.0 mi Calm Calm - N/A   Clear
10:53 AM 66.0 °F - 37.9 °F 36% 30.23 in 10.0 mi Calm Calm - N/A   Clear
11:53 AM 72.0 °F - 34.0 °F 25% 30.20 in 10.0 mi ESE 3.5 mph - N/A   Clear
12:53 PM 75.9 °F - 30.0 °F 19% 30.16 in 10.0 mi ENE 4.6 mph - N/A   Clear
1:53 PM 77.0 °F - 37.0 °F 24% 30.14 in 10.0 mi Variable 3.5 mph - N/A   Clear
2:53 PM 79.0 °F - 26.1 °F 14% 30.12 in 10.0 mi Variable 3.5 mph - N/A   Clear
3:53 PM 71.1 °F - 30.9 °F 23% 30.12 in 10.0 mi SW 5.8 mph - N/A   Clear
4:53 PM 62.1 °F - 45.0 °F 53% 30.13 in 10.0 mi ESE 5.8 mph - N/A   Clear
5:53 PM 57.0 °F - 46.9 °F 69% 30.14 in 10.0 mi Calm Calm - N/A   Clear
6:53 PM 55.9 °F - 46.9 °F 72% 30.16 in 10.0 mi Calm Calm - N/A   Clear
7:53 PM 53.1 °F - 46.0 °F 77% 30.15 in 9.0 mi Calm Calm - N/A   Clear
8:53 PM 52.0 °F - 41.0 °F 66% 30.15 in 10.0 mi NW 4.6 mph - N/A   Clear
9:53 PM 50.0 °F - 37.9 °F 63% 30.16 in 10.0 mi NW 3.5 mph - N/A   Clear
10:53 PM 48.9 °F - 37.0 °F 64% 30.15 in 10.0 mi NW 4.6 mph - N/A   Clear
11:53 PM 48.0 °F - 35.1 °F 61% 30.14 in 10.0 mi WNW 6.9 mph - N/A   Clear